Time,TemperatureF,DewpointF,PressureIn,WindDirection,WindDirectionDegrees,WindSpeedMPH,WindSpeedGustMPH,Humidity,HourlyPrecipIn,Conditions,Clouds,dailyrainin,SolarRadiationWatts/m^2,SoftwareType,DateUTC
2014-04-20 00:04:00,46.6,28.9,30.30,ENE,58,4.0,4.0,50,0.00,,,0.00,0,Wunderground v.1.15,2014-04-20 04:04:00,
2014-04-20 00:05:00,46.5,28.8,30.29,ESE,102,4.0,4.0,50,0.00,,,0.00,0,Wunderground v.1.15,2014-04-20 04:05:00,
2014-04-20 00:07:00,46.5,28.8,30.30,East,91,4.0,4.0,50,0.00,,,0.00,0,Wunderground v.1.15,2014-04-20 04:07:00,
2014-04-20 00:13:00,46.2,28.6,30.29,East,98,4.0,6.0,50,0.00,,,0.00,0,Wunderground v.1.15,2014-04-20 04:13:00,
2014-04-20 00:16:00,46.1,28.5,30.29,ENE,77,4.0,9.0,50,0.00,,,0.00,0,Wunderground v.1.15,2014-04-20 04:16:00,
2014-04-20 00:19:00,46.0,28.4,30.29,NE,52,3.0,9.0,50,0.00,,,0.00,0,Wunderground v.1.15,2014-04-20 04:19:00,
2014-04-20 00:23:00,45.8,28.2,30.30,NE,41,3.0,9.0,50,0.00,,,0.00,0,Wunderground v.1.15,2014-04-20 04:23:00,
2014-04-20 00:28:00,45.7,28.1,30.30,NE,50,3.0,5.0,50,0.00,,,0.00,0,Wunderground v.1.15,2014-04-20 04:28:00,
2014-04-20 00:34:00,45.6,28.0,30.29,East,95,3.0,5.0,50,0.00,,,0.00,0,Wunderground v.1.15,2014-04-20 04:34:00,
2014-04-20 00:39:00,45.3,28.2,30.29,ENE,76,3.0,5.0,51,0.00,,,0.00,0,Wunderground v.1.15,2014-04-20 04:39:00,
2014-04-20 00:45:00,45.0,27.9,30.29,ENE,62,2.0,2.0,51,0.00,,,0.00,0,Wunderground v.1.15,2014-04-20 04:45:00,
2014-04-20 00:50:00,44.8,28.2,30.29,NE,47,1.0,4.0,52,0.00,,,0.00,0,Wunderground v.1.15,2014-04-20 04:50:00,
2014-04-20 00:56:00,44.7,27.7,30.30,NE,38,2.0,4.0,51,0.00,,,0.00,0,Wunderground v.1.15,2014-04-20 04:56:00,
2014-04-20 01:01:00,44.7,28.1,30.29,NNE,28,3.0,4.0,52,0.00,,,0.00,0,Wunderground v.1.15,2014-04-20 05:01:00,
2014-04-20 01:06:00,44.5,28.4,30.30,North,8,3.0,6.0,53,0.00,,,0.00,0,Wunderground v.1.15,2014-04-20 05:06:00,
2014-04-20 01:12:00,44.3,29.6,30.30,North,4,3.0,4.0,56,0.00,,,0.00,0,Wunderground v.1.15,2014-04-20 05:12:00,
2014-04-20 01:18:00,43.5,30.1,30.31,North,4,3.0,4.0,59,0.00,,,0.00,0,Wunderground v.1.15,2014-04-20 05:18:00,
2014-04-20 01:24:00,43.0,29.6,30.30,NE,42,3.0,3.0,59,0.00,,,0.00,0,Wunderground v.1.15,2014-04-20 05:24:00,
2014-04-20 01:30:00,42.9,29.1,30.30,NE,40,2.0,2.0,58,0.00,,,0.00,0,Wunderground v.1.15,2014-04-20 05:30:00,
2014-04-20 01:35:00,43.1,28.9,30.30,NE,37,2.0,3.0,57,0.00,,,0.00,0,Wunderground v.1.15,2014-04-20 05:35:00,
2014-04-20 01:40:00,43.4,28.7,30.30,NE,48,2.0,3.0,56,0.00,,,0.00,0,Wunderground v.1.15,2014-04-20 05:40:00,
2014-04-20 01:46:00,43.4,28.7,30.30,NE,55,2.0,3.0,56,0.00,,,0.00,0,Wunderground v.1.15,2014-04-20 05:46:00,
2014-04-20 01:52:00,43.4,28.7,30.29,ENE,62,2.0,3.0,56,0.00,,,0.00,0,Wunderground v.1.15,2014-04-20 05:52:00,
2014-04-20 01:58:00,43.4,29.2,30.29,ENE,78,1.0,3.0,57,0.00,,,0.00,0,Wunderground v.1.15,2014-04-20 05:58:00,
2014-04-20 02:04:00,43.3,29.1,30.29,ENE,77,1.0,3.0,57,0.00,,,0.00,0,Wunderground v.1.15,2014-04-20 06:04:00,
2014-04-20 02:10:00,43.0,29.2,30.29,East,88,1.0,1.0,58,0.00,,,0.00,0,Wunderground v.1.15,2014-04-20 06:10:00,
2014-04-20 02:15:00,42.8,29.5,30.28,ENE,75,1.0,3.0,59,0.00,,,0.00,0,Wunderground v.1.15,2014-04-20 06:15:00,
2014-04-20 02:20:00,42.7,29.8,30.29,NE,52,1.0,1.0,60,0.00,,,0.00,0,Wunderground v.1.15,2014-04-20 06:20:00,
2014-04-20 02:26:00,42.5,30.0,30.29,NNE,33,1.0,4.0,61,0.00,,,0.00,0,Wunderground v.1.15,2014-04-20 06:26:00,
2014-04-20 02:31:00,42.5,30.4,30.29,ENE,60,2.0,3.0,62,0.00,,,0.00,0,Wunderground v.1.15,2014-04-20 06:31:00,
2014-04-20 02:37:00,42.4,30.3,30.28,ENE,64,2.0,4.0,62,0.00,,,0.00,0,Wunderground v.1.15,2014-04-20 06:37:00,
2014-04-20 02:43:00,42.4,30.3,30.28,ENE,64,3.0,4.0,62,0.00,,,0.00,0,Wunderground v.1.15,2014-04-20 06:43:00,
2014-04-20 02:48:00,42.4,30.3,30.28,ENE,73,2.0,4.0,62,0.00,,,0.00,0,Wunderground v.1.15,2014-04-20 06:48:00,
2014-04-20 02:54:00,42.3,30.6,30.28,ENE,70,2.0,3.0,63,0.00,,,0.00,0,Wunderground v.1.15,2014-04-20 06:54:00,
2014-04-20 02:59:00,42.2,30.5,30.28,East,81,1.0,3.0,63,0.00,,,0.00,0,Wunderground v.1.15,2014-04-20 06:59:00,
2014-04-20 03:05:00,41.9,30.6,30.28,ENE,77,1.0,2.0,64,0.00,,,0.00,0,Wunderground v.1.15,2014-04-20 07:05:00,
2014-04-20 03:10:00,41.7,30.4,30.28,ENE,77,0.0,2.0,64,0.00,,,0.00,0,Wunderground v.1.15,2014-04-20 07:10:00,
2014-04-20 03:16:00,41.4,30.9,30.28,ENE,68,0.0,1.0,66,0.00,,,0.00,0,Wunderground v.1.15,2014-04-20 07:16:00,
2014-04-20 03:21:00,41.3,30.8,30.28,ENE,76,1.0,3.0,66,0.00,,,0.00,0,Wunderground v.1.15,2014-04-20 07:21:00,
2014-04-20 03:27:00,41.2,31.1,30.28,East,80,1.0,3.0,67,0.00,,,0.00,0,Wunderground v.1.15,2014-04-20 07:27:00,
2014-04-20 03:32:00,41.0,31.2,30.28,ENE,72,1.0,3.0,68,0.00,,,0.00,0,Wunderground v.1.15,2014-04-20 07:32:00,
2014-04-20 03:38:00,40.9,31.1,30.28,East,84,1.0,1.0,68,0.00,,,0.00,0,Wunderground v.1.15,2014-04-20 07:38:00,
2014-04-20 03:44:00,40.9,31.5,30.28,East,83,1.0,1.0,69,0.00,,,0.00,0,Wunderground v.1.15,2014-04-20 07:44:00,
2014-04-20 03:50:00,40.7,31.3,30.28,ENE,58,0.0,2.0,69,0.00,,,0.00,0,Wunderground v.1.15,2014-04-20 07:50:00,
2014-04-20 03:56:00,40.7,31.7,30.28,NE,37,1.0,2.0,70,0.00,,,0.00,0,Wunderground v.1.15,2014-04-20 07:56:00,
2014-04-20 04:02:00,40.7,31.7,30.28,NE,44,1.0,3.0,70,0.00,,,0.00,0,Wunderground v.1.15,2014-04-20 08:02:00,
2014-04-20 04:08:00,40.7,32.0,30.28,East,79,1.0,-999.0,70,-99.99,,,0.00,0,weatherlink.com 1.10,2014-04-20 08:08:00,
2014-04-20 04:13:00,40.7,31.7,30.28,NE,56,1.0,2.0,70,0.00,,,0.00,0,Wunderground v.1.15,2014-04-20 08:13:00,
2014-04-20 04:19:00,40.5,31.8,30.28,NE,50,1.0,3.0,71,0.00,,,0.00,0,Wunderground v.1.15,2014-04-20 08:19:00,
2014-04-20 04:24:00,40.4,31.7,30.28,East,86,1.0,1.0,71,0.00,,,0.00,0,Wunderground v.1.15,2014-04-20 08:24:00,
2014-04-20 04:29:00,40.4,31.7,30.28,East,85,1.0,1.0,71,0.00,,,0.00,0,Wunderground v.1.15,2014-04-20 08:29:00,
2014-04-20 04:35:00,40.2,31.5,30.28,East,91,0.0,1.0,71,0.00,,,0.00,0,Wunderground v.1.15,2014-04-20 08:35:00,
2014-04-20 04:40:00,40.2,31.5,30.28,ENE,64,1.0,1.0,71,0.00,,,0.00,0,Wunderground v.1.15,2014-04-20 08:40:00,
2014-04-20 04:45:00,40.1,31.8,30.27,ENE,62,1.0,2.0,72,0.00,,,0.00,0,Wunderground v.1.15,2014-04-20 08:45:00,
2014-04-20 07:50:00,39.1,33.0,30.27,East,98,0.0,-999.0,79,-99.99,,,0.00,88,weatherlink.com 1.10,2014-04-20 11:50:00,
2014-04-20 08:08:00,40.9,34.0,30.27,ENE,61,4.0,-999.0,77,-99.99,,,0.00,135,weatherlink.com 1.10,2014-04-20 12:08:00,
2014-04-20 08:22:00,42.0,34.0,30.28,ENE,71,0.0,-999.0,74,-99.99,,,0.00,165,weatherlink.com 1.10,2014-04-20 12:22:00,
2014-04-20 08:37:00,43.5,36.0,30.27,SE,142,3.0,-999.0,74,-99.99,,,0.00,236,weatherlink.com 1.10,2014-04-20 12:37:00,
2014-04-20 08:48:00,44.7,35.9,30.27,East,97,2.0,5.0,71,0.00,,,0.00,250,Wunderground v.1.15,2014-04-20 12:48:00,
2014-04-20 08:53:00,45.1,35.9,30.27,ESE,110,3.0,5.0,70,0.00,,,0.00,274,Wunderground v.1.15,2014-04-20 12:53:00,
2014-04-20 08:59:00,45.5,35.9,30.27,SE,137,3.0,4.0,69,0.00,,,0.00,313,Wunderground v.1.15,2014-04-20 12:59:00,
2014-04-20 09:01:00,45.6,36.0,30.27,ESE,122,3.0,4.0,69,0.00,,,0.00,318,Wunderground v.1.15,2014-04-20 13:01:00,
2014-04-20 09:07:00,46.3,36.3,30.27,East,100,3.0,4.0,68,0.00,,,0.00,343,Wunderground v.1.15,2014-04-20 13:07:00,
2014-04-20 09:12:00,46.9,36.5,30.27,SE,131,4.0,5.0,67,0.00,,,0.00,327,Wunderground v.1.15,2014-04-20 13:12:00,
2014-04-20 09:18:00,47.4,36.2,30.27,SE,142,4.0,9.0,65,0.00,,,0.00,387,Wunderground v.1.15,2014-04-20 13:18:00,
2014-04-20 09:23:00,47.8,37.0,30.27,SE,137,5.0,6.0,66,0.00,,,0.00,410,Wunderground v.1.15,2014-04-20 13:23:00,
2014-04-20 09:29:00,48.3,36.7,30.27,SE,144,5.0,7.0,64,0.00,,,0.00,436,Wunderground v.1.15,2014-04-20 13:29:00,
2014-04-20 09:34:00,48.9,37.3,30.27,SE,139,6.0,7.0,64,0.00,,,0.00,464,Wunderground v.1.15,2014-04-20 13:34:00,
2014-04-20 09:40:00,49.4,36.9,30.27,SE,134,6.0,6.0,62,0.00,,,0.00,330,Wunderground v.1.15,2014-04-20 13:40:00,
2014-04-20 09:45:00,49.9,37.0,30.27,SE,137,6.0,6.0,61,0.00,,,0.00,357,Wunderground v.1.15,2014-04-20 13:45:00,
2014-04-20 09:50:00,50.6,37.2,30.26,SE,139,4.0,4.0,60,0.00,,,0.00,475,Wunderground v.1.15,2014-04-20 13:50:00,
2014-04-20 09:55:00,51.5,37.2,30.26,SSE,152,4.0,6.0,58,0.00,,,0.00,445,Wunderground v.1.15,2014-04-20 13:55:00,
2014-04-20 10:01:00,52.2,37.0,30.27,SE,139,5.0,8.0,56,0.00,,,0.00,538,Wunderground v.1.15,2014-04-20 14:01:00,
2014-04-20 10:07:00,53.1,37.3,30.26,SSE,160,5.0,8.0,55,0.00,,,0.00,527,Wunderground v.1.15,2014-04-20 14:07:00,
2014-04-20 10:12:00,53.7,37.9,30.26,SE,125,5.0,5.0,55,0.00,,,0.00,490,Wunderground v.1.15,2014-04-20 14:12:00,
2014-04-20 10:17:00,54.6,37.8,30.26,SE,132,4.0,6.0,53,0.00,,,0.00,585,Wunderground v.1.15,2014-04-20 14:17:00,
2014-04-20 10:23:00,55.3,37.0,30.26,SE,144,2.0,-999.0,51,-99.99,,,0.00,543,weatherlink.com 1.10,2014-04-20 14:23:00,
2014-04-20 10:28:00,56.3,37.4,30.26,SSE,148,2.0,4.0,49,0.00,,,0.00,527,Wunderground v.1.15,2014-04-20 14:28:00,
2014-04-20 10:34:00,57.3,38.3,30.25,South,170,3.0,8.0,49,0.00,,,0.00,563,Wunderground v.1.15,2014-04-20 14:34:00,
2014-04-20 10:39:00,57.8,37.7,30.25,SE,143,5.0,8.0,47,0.00,,,0.00,594,Wunderground v.1.15,2014-04-20 14:39:00,
2014-04-20 10:45:00,58.0,37.3,30.25,South,176,7.0,10.0,46,0.00,,,0.00,536,Wunderground v.1.15,2014-04-20 14:45:00,
2014-04-20 10:51:00,58.5,37.8,30.25,South,183,7.0,8.0,46,0.00,,,0.00,635,Wunderground v.1.15,2014-04-20 14:51:00,
2014-04-20 10:57:00,59.0,37.7,30.25,SSE,161,7.0,10.0,45,0.00,,,0.00,450,Wunderground v.1.15,2014-04-20 14:57:00,
2014-04-20 11:03:00,59.2,38.4,30.25,South,172,8.0,11.0,46,0.00,,,0.00,413,Wunderground v.1.15,2014-04-20 15:03:00,
2014-04-20 11:08:00,59.2,37.9,30.25,South,185,8.0,11.0,45,0.00,,,0.00,394,Wunderground v.1.15,2014-04-20 15:08:00,
2014-04-20 11:13:00,59.5,37.6,30.25,South,187,8.0,10.0,44,0.00,,,0.00,670,Wunderground v.1.15,2014-04-20 15:13:00,
2014-04-20 11:18:00,60.4,39.5,30.25,SSE,162,7.0,10.0,46,0.00,,,0.00,842,Wunderground v.1.15,2014-04-20 15:18:00,
2014-04-20 11:23:00,61.3,39.2,30.25,South,173,6.0,11.0,44,0.00,,,0.00,645,Wunderground v.1.15,2014-04-20 15:23:00,
2014-04-20 11:29:00,61.9,38.5,30.24,South,177,7.0,11.0,42,0.00,,,0.00,731,Wunderground v.1.15,2014-04-20 15:29:00,
2014-04-20 11:34:00,62.2,36.9,30.24,SSE,156,8.0,10.0,39,0.00,,,0.00,707,Wunderground v.1.15,2014-04-20 15:34:00,
2014-04-20 11:39:00,62.5,37.8,30.24,SSE,159,8.0,10.0,40,0.00,,,0.00,446,Wunderground v.1.15,2014-04-20 15:39:00,
2014-04-20 11:45:00,62.6,38.6,30.24,South,179,8.0,10.0,41,0.00,,,0.00,761,Wunderground v.1.15,2014-04-20 15:45:00,
2014-04-20 11:51:00,63.4,38.0,30.24,SSW,195,8.0,8.0,39,0.00,,,0.00,875,Wunderground v.1.15,2014-04-20 15:51:00,
2014-04-20 11:56:00,64.2,39.4,30.24,South,169,7.0,11.0,40,0.00,,,0.00,670,Wunderground v.1.15,2014-04-20 15:56:00,